Location: Brompton
(51.4000°N, 0.5333°E)
Time: 14:34:10
(UTC+00:00)

Daily predictions for brighter satellites

Satellite Brightness Start Highest point End
(mag) Time Altitude Azimuth Time Altitude Azimuth Time Altitude Azimuth
BREEZE-M DEB (TANK) 4.4 19:57:56 10° W 20:02:43 71° SSW 20:21:45 10° ESE
Cosmos 1933 3.4 20:10:45 10° S 20:14:45 63° E 20:18:45 10° NNE
Cosmos 773 Rocket 4.2 20:11:25 10° NNW 20:16:44 67° ENE 20:22:00 10° SE
MetOp-B 4.3 20:16:23 10° SSE 20:21:40 63° ENE 20:26:58 10° N
ERS-2 3.8 20:19:16 10° N 20:22:40 38° WNW 20:26:04 10° SW
Cosmos 1602 3.7 20:20:43 10° N 20:24:36 78° E 20:28:28 10° SSE
BREEZE-M DEB (TANK) 1.2 20:23:03 10° W 20:25:33 55° S 20:27:34 10° E
Cosmos 1606 4.2 20:22:00 10° SW 20:25:35 41° WNW 20:29:14 10° N
Cosmos 2278 Rocket 3.2 20:21:07 10° SSE 20:25:40 26° ESE 20:30:12 10° NE
USA 305 2.9 20:22:24 10° WNW 20:26:42 87° NNE 20:30:59 10° ESE
Spot 2 Rocket 4.1 20:22:36 10° SE 20:27:21 43° ENE 20:32:07 10° N
Cosmos 1782 3.1 20:24:35 10° S 20:28:27 49° E 20:32:18 10° NNE
Landsat 7 3.9 20:24:10 10° SSE 20:28:55 76° ENE 20:33:42 10° NNW
Cosmos 1844 Rocket 3.1 20:24:05 10° SW 20:29:38 71° WNW 20:35:16 10° NNE
IGS 5A 3.5 20:25:42 10° SSE 20:29:50 86° ENE 20:34:01 10° NNW
Cosmos 1242 Rocket 2.4 20:27:24 10° S 20:30:58 82° E 20:34:31 10° NNE
Gbstr 26 Del rocket 4.4 20:23:13 10° W 20:31:13 88° N 20:38:07 10° E
ERS-1 Rocket 3.9 20:30:30 10° SE 20:35:02 35° ENE 20:39:36 10° N
CZ-4C R/B 3.0 20:28:37 10° NW 20:35:38 90° SW 20:43:47 11° SE
Cosmos 1633 Rocket 3.1 20:33:58 10° N 20:38:24 90° SSW 20:42:48 10° S
BREEZE M DEB (TANK) 4.3 20:34:48 10° WSW 20:39:02 75° SSE 20:54:21 10° E
Akebono 3.8 20:39:46 10° NNW 20:42:15 89° ENE 20:43:57 14° SSE
ATLAS 5 CENTAUR R/B 3.2 20:39:44 10° NW 20:44:58 42° SW 20:51:03 10° SSE
deb Kosmos-1763 4.5 20:41:36 10° NNW 20:45:04 47° ENE 20:47:57 14° SE
USA 306 2.9 20:41:45 10° WNW 20:46:01 81° SSW 20:49:58 12° ESE
Cosmos 1470 Rocket 3.6 20:46:11 10° N 20:50:41 73° ENE 20:55:01 11° SSE
Cosmos 1328 Rocket 3.6 20:46:30 10° S 20:50:54 69° E 20:55:18 10° NNE
Cosmos 1812 3.3 20:47:18 10° SSE 20:50:55 40° E 20:54:33 10° NNE
Cosmos 1503 Rocket 4.2 20:46:01 10° SSW 20:51:12 77° WNW 20:56:28 10° NNE
Cosmos 1777 Rocket 4.2 20:47:29 10° S 20:52:29 50° ESE 20:57:31 10° NNE
ARIANE 5 R/B 2.7 20:52:22 13° SSE 20:56:15 65° ENE 21:00:33 10° N
Cosmos 1666 3.0 20:54:04 10° N 20:57:43 48° ENE 21:00:28 16° SSE
CRYOSAT 2 4.4 20:54:41 10° S 20:59:35 86° W 21:04:31 10° N
CARTOSAT-1 3.6 20:56:42 13° SSE 21:00:26 66° ENE 21:04:44 10° N
Cosmos 1833 Rocket 2.8 20:56:29 10° NNW 21:02:10 83° WSW 21:07:04 14° SSE
Meteor 1-5 Rocket 4.1 20:58:11 10° N 21:03:38 79° ENE 21:08:22 13° SSE
Cosmos 1933 Rocket 3.6 21:00:36 10° N 21:04:56 67° ENE 21:08:26 15° SSE
BREEZE-M R/B 1.9 21:03:13 10° WSW 21:05:37 47° SSE 21:07:49 13° E
Cosmos 1536 4.0 21:04:34 10° N 21:08:09 29° ENE 21:10:33 16° ESE
Cosmos 1437 2.5 21:05:28 10° SSW 21:08:18 78° WNW 21:11:09 10° N
Cosmos 2184 Rocket 4.1 21:06:13 10° N 21:12:27 67° ENE 21:17:33 15° SSE
USA 307 3.0 21:08:23 10° WNW 21:12:38 64° SSW 21:15:38 19° SE
CZ-2C R/B 3.8 21:09:45 10° NNE 21:14:15 82° WNW 21:18:48 10° SSW
H-2A R/B 4.5 21:12:38 10° NE 21:16:18 29° E 21:18:18 19° SE
Cosmos 2074 Rocket 4.1 21:10:39 10° N 21:16:59 74° ENE 21:22:14 15° SSE
NOSS 3-4 (A) 3.9 21:11:02 10° NW 21:17:55 90° ENE 21:24:06 17° SE
NOSS 3-4 (C) 3.9 21:11:09 10° NW 21:18:01 89° NE 21:24:13 17° SE
JB-3 4.3 21:15:04 10° NNE 21:18:57 60° E 21:21:59 15° S
USA 245 3.4 21:20:53 17° SSW 21:22:13 32° W 21:24:19 10° NNW
SJ 16-02 1.5 21:19:29 12° S 21:23:23 52° ESE 21:27:43 10° NNE
Nadezhda 1 Rocket 4.4 21:19:51 16° SSE 21:24:32 45° E 21:30:25 10° NNE
USA 308 3.2 21:22:00 10° WNW 21:26:12 55° SSW 21:28:43 22° SE
Cosmos 1500 4.3 21:24:04 10° NNW 21:27:36 39° W 21:30:59 11° SSW
SPOT 1/Viking Rocket 4.3 21:23:38 10° S 21:28:41 50° W 21:33:45 10° NNW
NOSS 3-3 (A) 4.0 21:23:05 10° SW 21:28:59 87° NW 21:35:50 10° NE
NOSS 3-3 (C) 4.0 21:23:13 10° SW 21:29:06 88° NW 21:35:56 10° NE
ATLAS 2AS CENTAUR R/B 3.0 21:23:57 10° NW 21:31:30 74° NE 21:37:04 17° SE
Cosmos 1544 3.9 21:32:10 10° N 21:35:33 36° ENE 21:37:03 25° ESE
CREW DRAGON DEMO-1 DEB 3.6 21:33:24 10° W 21:35:44 27° SSW 21:35:56 27° SSW
Iridium 4 Rocket 3.8 21:30:58 13° S 21:36:08 85° E 21:42:06 10° N
Terra 1.8 21:33:01 21° SSE 21:36:12 77° ENE 21:40:59 10° NNW
USA 215 3.9 21:31:25 10° E 21:37:47 57° N 21:44:08 10° WNW
Cosmos 1610 Rocket 4.5 21:33:41 10° N 21:39:51 71° ENE 21:44:06 21° SSE
ERBS 3.4 21:37:22 10° NW 21:40:31 40° NNE 21:43:15 13° E
Cosmos 2082 Rocket 2.2 21:36:29 10° NNW 21:42:08 78° WSW 21:45:50 22° SSE
SPOT 5 3.2 21:38:33 18° S 21:42:21 73° WSW 21:47:41 10° NNW
Cosmos 158 Rocket 3.9 21:38:54 10° NNW 21:43:47 73° WSW 21:46:51 23° SSE
Cosmos 2112 Rocket 4.3 21:39:33 10° NNW 21:44:53 61° ENE 21:48:11 23° SE
Resurs 01 Rocket 4.0 21:42:18 10° SW 21:45:22 18° W 21:48:28 10° NW
Cosmos 2084 3.9 21:41:56 10° WSW 21:46:05 64° NW 21:50:21 10° NE
Cosmos 2228 Rocket 3.1 21:45:34 22° S 21:48:19 68° E 21:52:47 10° NNE
Cosmos 44 3.7 21:43:01 10° NW 21:48:30 69° NE 21:51:59 22° SE
COSMOS 2406 4.1 21:43:14 10° NW 21:48:30 40° WSW 21:52:38 16° S
Cosmos 2084 Rocket 3.9 21:52:25 10° NW 21:56:36 58° NE 21:59:14 22° ESE
Cosmos 1271 Rocket 2.9 21:54:20 18° SSW 21:57:16 73° WNW 22:01:18 10° N
Cosmos 2341 Rocket 4.3 21:54:00 10° N 22:00:19 57° ENE 22:04:08 24° SE
BREEZE-M DEB (TANK) 3.2 21:52:22 10° W 22:00:43 80° N 22:03:26 10° E
Meteor 1-27 Rocket 3.8 21:58:45 20° S 22:02:55 76° E 22:08:52 10° NNE
USA 305 3.9 22:02:36 10° WNW 22:06:22 31° SW 22:07:27 27° S
Cosmos 2278 Rocket 2.6 22:03:40 10° SW 22:09:18 66° WNW 22:14:58 10° NNE
SL-24 R/B - RUBIN 2 3.9 22:04:52 10° NW 22:10:31 87° WSW 22:13:07 30° SE
Cosmos 1937 Rocket 4.1 22:09:32 28° SE 22:11:13 36° ESE 22:15:56 10° NE
Cosmos 1680 Rocket 3.6 22:06:44 10° NNW 22:12:05 77° WSW 22:14:52 29° SSE
ERS-1 Rocket 4.0 22:10:19 17° SSW 22:13:48 39° W 22:18:32 10° NNW
Cosmos 1869 Rocket 3.9 22:09:36 10° NNW 22:13:52 57° W 22:16:04 26° SSW
Cosmos 2218 Rocket 4.5 22:08:41 10° N 22:14:47 50° ENE 22:18:16 25° SE
Cosmos 1943 Rocket 2.9 22:13:55 28° SE 22:15:45 35° ESE 22:20:47 10° NE
Cosmos 2369 Rocket 3.5 22:17:10 20° ESE 22:18:11 21° E 22:22:17 10° NE
Gbstr 26 Del rocket 4.1 22:11:10 10° WNW 22:18:47 80° SSW 22:23:48 17° ESE
Cosmos 1238 Rocket 3.9 22:16:07 10° N 22:22:25 66° ENE 22:25:13 30° SSE
CZ-4C R/B 4.2 22:17:40 10° WNW 22:23:50 29° WSW 22:28:58 16° SSW
USA 306 4.2 22:22:06 10° W 22:25:32 24° SW 22:26:02 23° SSW
Meteor 2-9 Rocket 4.5 22:20:01 10° N 22:25:47 60° ENE 22:28:36 29° SE
Cosmos 1340 Rocket 3.1 22:25:33 10° NNW 22:29:37 63° W 22:31:03 36° SSW
Okean 1 3.7 22:29:36 41° SE 22:30:27 49° E 22:34:20 10° NNE
Cosmos 1818 3.5 22:25:58 10° NW 22:31:31 89° SW 22:34:12 31° SE
Cosmos 1707 Rocket 3.5 22:32:59 36° S 22:34:43 86° E 22:39:10 10° NNE
DNEPR-1 R/B 4.4 22:34:46 32° S 22:36:48 45° SE 22:41:32 10° NE
SL-8 Rocket 4.0 22:31:54 10° N 22:38:16 81° ENE 22:41:32 31° SSE
ALOS 2 3.3 22:41:06 30° ESE 22:42:43 44° ENE 22:46:54 10° N
Cosmos 1536 4.3 22:40:59 10° NNW 22:44:32 30° W 22:46:16 22° SW
Cosmos 1743 3.4 22:44:44 10° NNW 22:48:27 46° W 22:49:32 35° SW
Meteor 2-4 Rocket 4.4 22:47:04 30° SE 22:49:07 40° E 22:54:20 10° NNE
Cosmos 1898 Rocket 3.5 22:47:29 26° SSW 22:50:35 86° WNW 22:55:58 10° NNE
SL-27 R/B 4.2 22:50:10 10° N 22:52:51 22° NE 22:53:51 19° E
Cosmos 1975 2.7 22:55:40 10° N 22:59:40 81° ENE 23:00:28 55° SSE
RESURS DK-1 3.1 22:57:50 10° NNW 23:01:54 47° NE 23:03:31 30° ESE
SJ 16-02 3.5 22:58:37 10° WSW 23:02:16 24° NW 23:05:55 10° N
Cosmos 1733 Rocket 3.5 22:59:25 10° NNW 23:03:37 52° W 23:04:54 37° SW
Cosmos 990 Rocket 4.5 23:00:01 18° SW 23:03:53 58° WNW 23:09:06 10° NNE
Cosmos 864 Rocket 4.4 22:59:28 10° N 23:05:40 83° W 23:08:29 35° S
Cosmos 1461 3.4 23:07:22 45° SSE 23:08:03 49° ESE 23:12:31 10° NE
SeaSat 1 4.1 23:04:55 10° ENE 23:08:13 18° ESE 23:08:32 18° ESE
Cosmos 2297 3.7 23:04:38 24° SW 23:08:14 82° WNW 23:13:57 10° NNE
Cosmos 1959 Rocket 4.5 23:02:10 10° NNW 23:08:25 78° W 23:11:16 34° S
Cosmos 372 Rocket 4.0 23:07:02 41° SSE 23:08:34 60° ESE 23:13:35 10° NNE
Cosmos 2242 Rocket 4.1 23:09:01 38° SE 23:09:54 44° E 23:14:10 10° NNE
Cosmos 1900 4.3 23:09:19 26° SW 23:12:12 88° NW 23:17:17 10° NE
Terra 4.0 23:11:54 11° WSW 23:14:31 16° W 23:17:32 10° NW
ERBS 3.0 23:13:29 10° WNW 23:16:00 42° W 23:16:00 42° W
Cosmos 494 Rocket 4.4 23:12:35 10° NNW 23:17:44 55° ENE 23:20:07 30° SE
Cosmos 1908 Rocket 3.5 23:14:03 10° N 23:18:34 89° E 23:19:43 50° SSE
Meteor 1-18 Rocket 4.2 23:16:27 35° SSW 23:18:57 86° WNW 23:24:35 10° NNE
USA 215 3.2 23:14:01 10° ESE 23:20:34 85° NNE 23:27:09 10° WNW
ATLAS 2AS CENTAUR R/B 3.6 23:15:30 10° NW 23:21:57 35° WSW 23:24:29 27° SSW
MTI 4.5 23:19:30 10° NNE 23:21:54 41° ENE 23:21:54 41° ENE
Cosmos 2082 Rocket 4.2 23:22:20 10° WNW 23:25:17 15° W 23:27:41 11° SW
Cosmos 1867 4.1 23:25:56 36° SE 23:26:52 39° ESE 23:31:56 10° NE
Cosmos 44 Rocket 4.2 23:22:29 10° NW 23:27:37 51° NE 23:31:23 17° ESE
Cosmos 1125 Rocket 4.4 23:26:49 30° SE 23:27:55 33° ESE 23:32:33 10° NE
Cosmos 2181 Rocket 4.2 23:29:26 28° SSW 23:32:45 62° WNW 23:38:50 10° N
SAR-Lupe-2 3.4 23:29:12 10° NNE 23:32:48 71° ESE 23:32:57 69° SE
Cosmos 1378 3.9 23:34:53 38° E 23:35:03 38° E 23:38:31 10° NNE
ATLAS CENTAUR R/B 2.8 23:38:29 22° E 23:38:29 22° E 23:40:41 10° ENE
Cosmos 2344 4.3 23:28:43 10° NW 23:37:36 84° NE 23:49:59 10° SE
Cosmos 2366 rocket 4.5 23:31:55 10° NNW 23:37:50 50° W 23:40:37 30° SSW
Cosmos 1821 Rocket 4.0 23:32:06 10° N 23:38:33 84° E 23:41:25 36° SSE
Cosmos 1934 Rocket 4.5 23:33:04 10° N 23:39:05 52° ENE 23:42:10 28° SE
USA 281 4.4 23:38:14 10° ESE 23:44:09 37° NE 23:50:05 10° NNW
Cosmos 1703 Rocket 3.5 23:48:52 53° SSW 23:49:52 83° W 23:54:20 10° N
Cosmos 1782 Rocket 3.5 23:45:54 10° NNW 23:50:24 79° W 23:51:22 54° S
Okean 3 3.7 23:50:46 48° SE 23:51:30 55° E 23:55:40 10° NNE
NOSS 2-1 (C) 4.3 23:48:42 10° NW 23:53:12 67° NE 23:58:29 14° SE
Lacrosse 5 3.8 23:54:51 15° ESE 23:54:51 15° ESE 23:57:08 10° E
